TimeCDT,TemperatureF,Dew PointF,Humidity,Sea Level PressureIn,VisibilityMPH,Wind Direction,Wind SpeedMPH,Gust SpeedMPH,PrecipitationIn,Events,Conditions,WindDirDegrees,DateUTC
12:15 AM,61.7,61.7,100,29.82,0.2,Calm,Calm,-,N/A,Fog,Fog,0,2013-09-25 05:15:00
12:35 AM,61.5,61.5,100,29.82,0.2,Calm,Calm,-,N/A,Fog,Fog,0,2013-09-25 05:35:00
12:55 AM,61.3,61.3,100,29.82,0.2,Calm,Calm,-,N/A,Fog,Fog,0,2013-09-25 05:55:00
1:15 AM,61.5,61.5,100,29.82,0.2,Calm,Calm,-,N/A,Fog,Fog,0,2013-09-25 06:15:00
1:35 AM,62.4,62.4,100,29.81,1.2,Calm,Calm,-,N/A,,Overcast,0,2013-09-25 06:35:00
1:55 AM,61.9,61.9,100,29.81,0.8,Calm,Calm,-,N/A,,Mostly Cloudy,0,2013-09-25 06:55:00
2:15 AM,62.6,62.6,100,29.81,4.0,Calm,Calm,-,N/A,,Mostly Cloudy,0,2013-09-25 07:15:00
2:35 AM,63.0,63.0,100,29.81,3.0,Calm,Calm,-,N/A,,Overcast,0,2013-09-25 07:35:00
2:55 AM,63.1,63.1,100,29.81,3.0,Calm,Calm,-,N/A,,Overcast,0,2013-09-25 07:55:00
3:15 AM,63.1,63.1,100,29.81,3.0,Calm,Calm,-,N/A,,Mostly Cloudy,0,2013-09-25 08:15:00
3:35 AM,63.0,63.0,100,29.81,3.0,Calm,Calm,-,0.01,,Scattered Clouds,0,2013-09-25 08:35:00
3:55 AM,63.1,63.1,100,29.81,3.0,Calm,Calm,-,0.01,,Mostly Cloudy,0,2013-09-25 08:55:00
4:15 AM,63.1,63.1,100,29.81,2.5,Calm,Calm,-,N/A,,Mostly Cloudy,0,2013-09-25 09:15:00
4:35 AM,63.5,63.5,100,29.81,2.0,Calm,Calm,-,N/A,,Mostly Cloudy,0,2013-09-25 09:35:00
4:55 AM,63.9,63.9,100,29.81,0.8,Calm,Calm,-,N/A,,Overcast,0,2013-09-25 09:55:00
5:15 AM,64.0,64.0,100,29.81,0.2,Calm,Calm,-,N/A,Fog,Fog,0,2013-09-25 10:15:00
5:35 AM,64.0,64.0,100,29.81,0.2,Calm,Calm,-,N/A,Fog,Fog,0,2013-09-25 10:35:00
5:55 AM,64.4,64.4,100,29.81,0.2,Calm,Calm,-,N/A,Fog,Fog,0,2013-09-25 10:55:00
6:15 AM,64.8,64.8,100,29.81,0.8,Calm,Calm,-,N/A,,Overcast,0,2013-09-25 11:15:00
6:35 AM,64.9,64.9,100,29.81,1.2,Calm,Calm,-,N/A,,Overcast,0,2013-09-25 11:35:00
6:55 AM,65.3,65.3,100,29.82,1.5,Calm,Calm,-,N/A,,Overcast,0,2013-09-25 11:55:00
7:15 AM,65.3,65.3,100,29.83,1.8,Calm,Calm,-,N/A,,Overcast,0,2013-09-25 12:15:00
7:35 AM,65.5,65.5,100,29.83,2.0,Calm,Calm,-,N/A,,Overcast,0,2013-09-25 12:35:00
7:55 AM,66.2,66.2,100,29.83,2.5,Calm,Calm,-,N/A,,Overcast,0,2013-09-25 12:55:00
8:15 AM,67.1,67.1,100,29.83,3.0,Calm,Calm,-,N/A,,Overcast,0,2013-09-25 13:15:00
8:35 AM,67.3,67.3,100,29.83,5.0,Calm,Calm,-,N/A,,Overcast,0,2013-09-25 13:35:00
8:55 AM,68.0,68.0,100,29.84,5.0,Calm,Calm,-,N/A,,Overcast,0,2013-09-25 13:55:00
9:15 AM,68.4,68.4,100,29.84,5.0,Calm,Calm,-,N/A,,Overcast,0,2013-09-25 14:15:00
9:35 AM,69.3,69.3,100,29.84,7.0,East,4.6,-,N/A,,Overcast,80,2013-09-25 14:35:00
9:55 AM,71.6,71.1,98,29.84,7.0,East,5.8,-,N/A,,Overcast,90,2013-09-25 14:55:00
10:15 AM,71.6,70.3,96,29.85,10.0,ENE,3.5,-,N/A,,Mostly Cloudy,70,2013-09-25 15:15:00
10:35 AM,72.9,70.5,92,29.85,10.0,East,3.5,-,N/A,,Overcast,100,2013-09-25 15:35:00
10:55 AM,72.7,70.3,92,29.86,10.0,Calm,Calm,-,N/A,,Overcast,0,2013-09-25 15:55:00
11:15 AM,73.2,70.2,90,29.86,10.0,Calm,Calm,-,N/A,,Overcast,0,2013-09-25 16:15:00
11:35 AM,74.7,69.4,84,29.86,10.0,East,3.5,-,N/A,,Mostly Cloudy,100,2013-09-25 16:35:00
11:55 AM,74.7,70.3,86,29.85,10.0,ESE,4.6,-,N/A,,Scattered Clouds,110,2013-09-25 16:55:00
12:15 PM,76.5,69.4,79,29.85,10.0,Calm,Calm,-,N/A,,Scattered Clouds,0,2013-09-25 17:15:00
12:35 PM,78.1,67.8,71,29.84,10.0,East,3.5,-,N/A,,Mostly Cloudy,100,2013-09-25 17:35:00
1:15 PM,76.8,65.7,68,29.83,10.0,Calm,Calm,-,N/A,,Mostly Cloudy,0,2013-09-25 18:15:00
1:35 PM,79.3,65.1,62,29.83,10.0,NE,4.6,-,N/A,,Mostly Cloudy,50,2013-09-25 18:35:00
1:55 PM,79.2,65.3,62,29.82,10.0,NE,4.6,-,N/A,,Scattered Clouds,50,2013-09-25 18:55:00
2:15 PM,80.4,65.3,60,29.82,10.0,ENE,4.6,-,N/A,,Mostly Cloudy,60,2013-09-25 19:15:00
2:35 PM,77.0,65.3,67,29.81,10.0,NNE,4.6,-,N/A,,Mostly Cloudy,20,2013-09-25 19:35:00
2:55 PM,77.0,65.5,67,29.82,10.0,Calm,Calm,-,N/A,,Scattered Clouds,0,2013-09-25 19:55:00
3:15 PM,79.7,64.2,59,29.81,10.0,Calm,Calm,-,N/A,,Scattered Clouds,0,2013-09-25 20:15:00
3:35 PM,77.7,64.6,64,29.81,10.0,East,3.5,-,N/A,,Scattered Clouds,100,2013-09-25 20:35:00
3:55 PM,78.1,65.8,66,29.81,10.0,Calm,Calm,-,N/A,,Clear,0,2013-09-25 20:55:00
4:15 PM,80.4,64.6,58,29.81,10.0,Calm,Calm,-,N/A,,Scattered Clouds,0,2013-09-25 21:15:00
4:35 PM,78.6,63.7,60,29.81,10.0,ENE,3.5,-,N/A,,Scattered Clouds,70,2013-09-25 21:35:00
4:55 PM,79.9,64.4,59,29.81,10.0,ESE,3.5,-,N/A,,Clear,120,2013-09-25 21:55:00
5:15 PM,80.6,65.1,59,29.82,10.0,NE,3.5,-,N/A,,Scattered Clouds,50,2013-09-25 22:15:00
5:35 PM,79.0,63.7,59,29.82,10.0,ENE,3.5,-,N/A,,Scattered Clouds,70,2013-09-25 22:35:00
5:55 PM,77.2,64.4,65,29.82,10.0,Calm,Calm,-,N/A,,Clear,0,2013-09-25 22:55:00
6:15 PM,73.9,66.2,77,29.83,10.0,Calm,Calm,-,N/A,,Clear,0,2013-09-25 23:15:00
6:35 PM,72.9,66.4,80,29.83,10.0,Calm,Calm,-,N/A,,Clear,0,2013-09-25 23:35:00
6:55 PM,70.5,65.5,84,29.83,10.0,Calm,Calm,-,N/A,,Clear,0,2013-09-25 23:55:00
7:15 PM,69.6,67.1,92,29.83,10.0,Calm,Calm,-,N/A,,Clear,0,2013-09-26 00:15:00
7:35 PM,68.7,68.0,98,29.84,10.0,Calm,Calm,-,N/A,,Clear,0,2013-09-26 00:35:00
7:55 PM,67.6,67.6,100,29.84,10.0,Calm,Calm,-,N/A,,Clear,0,2013-09-26 00:55:00
8:15 PM,66.7,66.7,100,29.85,10.0,Calm,Calm,-,N/A,,Clear,0,2013-09-26 01:15:00
8:35 PM,66.2,66.2,100,29.85,7.0,Calm,Calm,-,N/A,,Clear,0,2013-09-26 01:35:00
8:55 PM,66.0,66.0,100,29.86,10.0,Calm,Calm,-,N/A,,Clear,0,2013-09-26 01:55:00
9:15 PM,66.0,66.0,100,29.86,4.0,Calm,Calm,-,N/A,,Clear,0,2013-09-26 02:15:00
9:35 PM,65.5,65.5,100,29.86,1.0,Calm,Calm,-,N/A,,Mist,0,2013-09-26 02:35:00
9:55 PM,65.1,65.1,100,29.86,1.5,Calm,Calm,-,N/A,,Mist,0,2013-09-26 02:55:00
10:15 PM,64.9,64.9,100,29.86,2.5,Calm,Calm,-,N/A,,Clear,0,2013-09-26 03:15:00
10:35 PM,64.0,64.0,100,29.87,0.2,Calm,Calm,-,N/A,Fog,Fog,0,2013-09-26 03:35:00
10:55 PM,63.9,63.9,100,29.87,0.5,Calm,Calm,-,N/A,Fog,Fog,0,2013-09-26 03:55:00
11:15 PM,62.8,62.8,100,29.88,0.8,Calm,Calm,-,N/A,,Mist,0,2013-09-26 04:15:00
11:35 PM,63.5,63.5,100,29.87,4.0,Calm,Calm,-,N/A,,Clear,0,2013-09-26 04:35:00
11:55 PM,62.8,62.8,100,29.87,3.0,Calm,Calm,-,N/A,,Clear,0,2013-09-26 04:55:00